This demonstration page uses our WeatherBlox Daily Observations layout. Learn more.

Hourly Observations for August 18, 2019

Temp ( °F °C ) Dew Point ( °F °C ) Humidity (%) Winds ( mph kmh ) Pressure ( in mb ) Visibility ( mi km ) Precip ( " mm )
12:15 am 00:15 Clear 73 23 72 22 94 94 Calm 29.97 1015 10 16.09344 0 0
12:35 am 00:35 Clear 77 25 72 22 83 83 SE 3 6 29.97 1015 10 16.09344 0 0
12:55 am 00:55 Clear 77 25 72 22 83 83 Calm 30 1016 10 16.09344 0 0
1:15 am 01:15 Clear 73 23 70 21 89 89 Calm 29.97 1015 10 16.09344 0 0
1:35 am 01:35 Clear 72 22 70 21 94 94 Calm 29.97 1015 10 16.09344 0 0
1:55 am 01:55 Clear 73 23 72 22 94 94 ESE 6 9 30 1016 10 16.09344 0 0
2:15 am 02:15 Clear 73 23 70 21 89 89 S 5 7 29.97 1015 10 16.09344 0 0
2:35 am 02:35 Clear 73 23 70 21 89 89 Calm 29.97 1015 10 16.09344 0 0
2:55 am 02:55 Clear 72 22 70 21 94 94 Calm 30 1016 10 16.09344 0 0
3:15 am 03:15 Clear 73 23 70 21 89 89 Calm 29.97 1015 10 16.09344 0 0
3:35 am 03:35 Clear 72 22 70 21 94 94 Calm 29.97 1015 10 16.09344 0 0
3:55 am 03:55 Clear 72 22 70 21 94 94 Calm 29.97 1015 10 16.09344 0 0
4:15 am 04:15 Clear 70 21 70 21 100 100 Calm 29.97 1015 10 16.09344 0 0
4:35 am 04:35 Clear 70 21 70 21 100 100 Calm 30 1016 10 16.09344 0 0
4:55 am 04:55 Clear 70 21 70 21 100 100 Calm 30 1016 10 16.09344 0 0
5:15 am 05:15 Clear 72 22 70 21 94 94 Calm 30 1016 10 16.09344 0 0
5:35 am 05:35 Clear 70 21 70 21 100 100 Calm 30 1016 10 16.09344 0 0
5:55 am 05:55 Clear 70 21 70 21 100 100 Calm 30 1016 10 16.09344 0 0
6:15 am 06:15 Clear 70 21 70 21 100 100 Calm 30.03 1017 10 16.09344 0 0
6:35 am 06:35 Sunny 68 20 68 20 100 100 Calm 30.03 1017 10 16.09344 0 0
6:55 am 06:55 Sunny 68 20 68 20 100 100 Calm 30.03 1017 10 16.09344 0 0
7:15 am 07:15 Sunny 68 20 68 20 100 100 Calm 30.03 1017 10 16.09344 0 0
7:35 am 07:35 Sunny 70 21 70 21 100 100 Calm 30.03 1017 10 16.09344 0 0
7:55 am 07:55 Sunny 72 22 70 21 94 94 Calm 30.03 1017 10 16.09344 0 0
8:15 am 08:15 Partly Cloudy 73 23 72 22 94 94 Calm 30.03 1017 10 16.09344 0 0
8:35 am 08:35 Sunny 75 24 72 22 89 89 Calm 30.03 1017 10 16.09344 0 0
8:55 am 08:55 Sunny 77 25 72 22 83 83 Calm 30.03 1017 10 16.09344 0 0
9:15 am 09:15 Sunny 79 26 72 22 79 79 Calm 30.03 1017 10 16.09344 0 0
9:35 am 09:35 Sunny 81 27 72 22 74 74 Calm 30.03 1017 10 16.09344 0 0
9:55 am 09:55 Sunny 82 28 72 22 70 70 Calm 30.03 1017 N/A 0 0
10:15 am 10:15 Sunny 84 29 73 23 70 70 Calm 30.03 1017 10 16.09344 0 0
10:35 am 10:35 Sunny 86 30 72 22 62 62 Calm 30.03 1017 10 16.09344 0 0
10:55 am 10:55 Sunny 88 31 72 22 59 59 Calm 30 1016 10 16.09344 0 0
11:15 am 11:15 Sunny 88 31 72 22 59 59 ESE 3 6 30 1016 N/A 0 0
11:35 am 11:35 Sunny 90 32 70 21 52 52 SE 3 6 30 1016 N/A 0 0
11:55 am 11:55 Sunny 90 32 70 21 52 52 Calm 30 1016 10 16.09344 0 0
12:15 pm 12:15 Sunny 91 33 72 22 52 52 ESE 3 6 30 1016 N/A 0 0
12:35 pm 12:35 Sunny 91 33 72 22 52 52 Calm 30 1016 10 16.09344 0 0
12:55 pm 12:55 Partly Cloudy 91 33 72 22 52 52 Calm 30 1016 10 16.09344 0 0
1:15 pm 13:15 Partly Cloudy 93 34 70 21 47 47 SSE 5 7 30 1016 10 16.09344 0 0
1:35 pm 13:35 Partly Cloudy 93 34 72 22 49 49 Calm 30 1016 10 16.09344 0 0
1:55 pm 13:55 Partly Cloudy 95 35 72 22 47 47 SW 3 6 29.97 1015 10 16.09344 0 0
2:15 pm 14:15 Partly Cloudy 95 35 72 22 47 47 SW 7 11 29.97 1015 10 16.09344 0 0
2:35 pm 14:35 Sunny 97 36 72 22 44 44 WNW 3 6 29.97 1015 10 16.09344 0 0
2:55 pm 14:55 Sunny 97 36 72 22 44 44 S 8 13 29.97 1015 10 16.09344 0 0
3:15 pm 15:15 Sunny 97 36 70 21 42 42 SSW 6 9 29.94 1014 10 16.09344 0 0
3:35 pm 15:35 Partly Cloudy 97 36 72 22 44 44 WSW 9 15 29.94 1014 10 16.09344 0 0
3:55 pm 15:55 Mostly Cloudy 95 35 72 22 47 47 S 12 19 29.94 1014 10 16.09344 0 0
4:15 pm 16:15 Mostly Cloudy 95 35 72 22 47 47 S 8 13 29.94 1014 10 16.09344 0 0
4:35 pm 16:35 Sunny 95 35 72 22 47 47 S 8 13 29.94 1014 10 16.09344 0 0
4:55 pm 16:55 Sunny 95 35 70 21 44 44 S 8 13 29.94 1014 10 16.09344 0 0
5:15 pm 17:15 Sunny 95 35 70 21 44 44 SSW 3 6 29.94 1014 10 16.09344 0 0
5:35 pm 17:35 Sunny 95 35 72 22 47 47 S 5 7 29.94 1014 10 16.09344 0 0
5:55 pm 17:55 Sunny 95 35 70 21 44 44 S 7 11 29.94 1014 10 16.09344 0 0
6:15 pm 18:15 Sunny 95 35 70 21 44 44 SSE 12 19 29.91 1013 10 16.09344 0 0
6:35 pm 18:35 Sunny 91 33 72 22 52 52 SE 7 11 29.91 1013 10 16.09344 0 0
6:55 pm 18:55 Sunny 91 33 72 22 52 52 SSE 10 17 29.91 1013 10 16.09344 0 0
7:15 pm 19:15 Sunny 91 33 72 22 52 52 S 7 11 29.94 1014 10 16.09344 0 0
7:35 pm 19:35 Sunny 88 31 72 22 59 59 SSW 3 6 29.94 1014 10 16.09344 0 0
7:55 pm 19:55 Sunny 88 31 73 23 62 62 SW 3 6 29.94 1014 10 16.09344 0 0
8:15 pm 20:15 Clear 88 31 73 23 62 62 WSW 5 7 29.94 1014 10 16.09344 0 0
8:35 pm 20:35 Partly Cloudy 86 30 70 21 59 59 W 15 24 30 1016 10 16.09344 0 0
8:55 pm 20:55 Clear with Nearby Thunderstorms 84 29 68 20 58 58 N 9 15 30.03 1017 10 16.09344 0 0
9:15 pm 21:15 Partly Cloudy with Nearby Thunderstorms 82 28 70 21 66 66 NE 9 15 30.03 1017 N/A 0 0
9:35 pm 21:35 Clear with Nearby Thunderstorms 79 26 66 19 65 65 NE 7 11 30 1016 10 16.09344 0 0
9:55 pm 21:55 Clear 77 25 66 19 69 69 ENE 5 7 30 1016 10 16.09344 0 0
10:15 pm 22:15 Clear 79 26 66 19 65 65 N 7 11 30 1016 10 16.09344 0 0
10:35 pm 22:35 Clear 77 25 68 20 74 74 NE 6 9 30 1016 10 16.09344 0 0
10:55 pm 22:55 Clear 75 24 68 20 78 78 Calm 30 1016 10 16.09344 0 0
11:15 pm 23:15 Clear 73 23 68 20 83 83 NNW 3 6 30 1016 10 16.09344 0 0
11:35 pm 23:35 Clear 73 23 68 20 83 83 Calm 30 1016 10 16.09344 0 0
11:55 pm 23:55 Mostly Cloudy 73 23 68 20 83 83 Calm 30.03 1017 10 16.09344 0 0

Powered by AerisWeather